TimeEST,TemperatureF,Dew PointF,Humidity,Sea Level PressureIn,VisibilityMPH,Wind Direction,Wind SpeedMPH,Gust SpeedMPH,PrecipitationIn,Events,Conditions,WindDirDegrees,DateUTC
12:33 AM,28.4,26.6,93,29.95,10.0,East,20.7,-,0.03,,Light Freezing Drizzle,100,2013-02-22 05:33:00
12:54 AM,28.9,26.1,89,29.93,10.0,ESE,23.0,31.1,0.03,,Overcast,110,2013-02-22 05:54:00
1:12 AM,28.4,26.6,93,29.91,10.0,East,17.3,26.5,0.00,,Light Freezing Drizzle,100,2013-02-22 06:12:00
1:42 AM,30.2,26.6,86,29.89,8.0,ESE,18.4,25.3,0.00,,Light Freezing Drizzle,110,2013-02-22 06:42:00
1:54 AM,30.0,27.0,88,29.91,10.0,ESE,19.6,26.5,0.00,,Light Freezing Drizzle,110,2013-02-22 06:54:00
2:10 AM,30.2,26.6,86,29.86,10.0,ESE,18.4,-,0.00,,Light Freezing Drizzle,110,2013-02-22 07:10:00
2:39 AM,30.2,26.6,86,29.87,2.5,ESE,16.1,-,0.00,,Light Freezing Drizzle,120,2013-02-22 07:39:00
2:54 AM,30.0,28.0,92,29.88,2.5,ESE,16.1,21.9,0.00,,Light Freezing Drizzle,120,2013-02-22 07:54:00
3:14 AM,30.2,28.4,93,29.85,5.0,ESE,15.0,-,0.01,,Light Freezing Drizzle,120,2013-02-22 08:14:00
3:21 AM,30.2,28.4,93,29.85,5.0,ESE,12.7,23.0,0.01,,Light Freezing Drizzle,110,2013-02-22 08:21:00
3:41 AM,30.2,28.4,93,29.84,2.0,ESE,11.5,-,0.01,,Light Freezing Drizzle,120,2013-02-22 08:41:00
3:54 AM,30.9,28.9,92,29.87,2.0,SE,12.7,-,0.01,,Light Freezing Drizzle,130,2013-02-22 08:54:00
4:54 AM,30.9,30.0,96,29.86,2.0,SE,11.5,-,0.02,,Light Freezing Drizzle,130,2013-02-22 09:54:00
5:04 AM,30.2,30.2,100,29.82,2.0,ESE,13.8,-,0.00,,Light Freezing Drizzle,120,2013-02-22 10:04:00
5:36 AM,30.2,30.2,100,29.83,3.0,ESE,9.2,-,0.00,,Light Freezing Drizzle,120,2013-02-22 10:36:00
5:54 AM,30.9,30.9,100,29.86,2.0,ESE,8.1,-,0.00,,Light Freezing Drizzle,120,2013-02-22 10:54:00
6:45 AM,32.0,30.2,93,29.83,1.8,ESE,8.1,-,0.00,,Light Drizzle,120,2013-02-22 11:45:00
6:54 AM,32.0,30.9,96,29.86,2.0,ESE,9.2,-,0.00,,Light Drizzle,120,2013-02-22 11:54:00
7:33 AM,32.0,30.2,93,29.84,1.8,SSE,8.1,-,0.00,,Light Drizzle,150,2013-02-22 12:33:00
7:54 AM,32.0,30.9,96,29.86,1.8,SE,9.2,-,0.00,,Light Drizzle,140,2013-02-22 12:54:00
8:44 AM,32.0,32.0,100,29.85,0.8,SSE,8.1,-,0.00,,Light Drizzle,160,2013-02-22 13:44:00
8:54 AM,32.0,32.0,100,29.88,0.8,SSE,9.2,-,0.00,,Light Drizzle,150,2013-02-22 13:54:00
9:54 AM,33.1,32.0,96,29.87,0.5,South,10.4,-,0.00,Fog,Fog,180,2013-02-22 14:54:00
10:20 AM,33.8,32.0,93,29.86,0.2,South,8.1,-,N/A,Fog,Fog,190,2013-02-22 15:20:00
10:52 AM,33.8,32.0,93,29.87,0.5,SW,9.2,-,N/A,Fog,Fog,220,2013-02-22 15:52:00
10:54 AM,33.1,32.0,96,29.89,0.5,SW,10.4,-,N/A,Fog,Fog,220,2013-02-22 15:54:00
11:42 AM,33.8,32.0,93,29.89,2.5,SW,13.8,-,N/A,,Overcast,220,2013-02-22 16:42:00
11:54 AM,33.1,32.0,96,29.92,2.5,SW,15.0,-,N/A,,Overcast,220,2013-02-22 16:54:00
12:25 PM,33.8,32.0,93,29.90,3.0,SW,12.7,-,N/A,,Overcast,220,2013-02-22 17:25:00
12:54 PM,33.1,32.0,96,29.93,6.0,SW,12.7,21.9,N/A,,Overcast,230,2013-02-22 17:54:00
1:54 PM,34.0,32.0,92,29.93,10.0,SW,10.4,-,N/A,,Overcast,230,2013-02-22 18:54:00
2:34 PM,33.8,32.0,93,29.91,10.0,SW,15.0,-,N/A,,Overcast,220,2013-02-22 19:34:00
2:54 PM,35.1,32.0,89,29.93,10.0,SW,9.2,-,N/A,,Overcast,220,2013-02-22 19:54:00
3:54 PM,35.1,30.9,85,29.94,10.0,SW,15.0,18.4,N/A,,Overcast,220,2013-02-22 20:54:00
4:22 PM,35.6,30.2,81,29.91,10.0,SW,11.5,-,N/A,,Overcast,220,2013-02-22 21:22:00
4:54 PM,35.1,30.0,82,29.94,10.0,SW,13.8,-,N/A,,Overcast,220,2013-02-22 21:54:00
5:54 PM,35.1,30.0,82,29.95,10.0,SSW,10.4,-,N/A,,Overcast,210,2013-02-22 22:54:00
6:51 PM,35.6,28.4,75,29.93,10.0,SSW,9.2,-,N/A,,Overcast,210,2013-02-22 23:51:00
6:54 PM,35.1,28.9,78,29.96,10.0,SSW,9.2,-,N/A,,Overcast,210,2013-02-22 23:54:00
7:54 PM,35.1,28.9,78,29.96,10.0,SW,12.7,-,N/A,,Overcast,230,2013-02-23 00:54:00
8:54 PM,34.0,28.9,82,29.97,10.0,WSW,15.0,-,N/A,,Overcast,240,2013-02-23 01:54:00
9:54 PM,33.1,28.0,82,29.99,10.0,WNW,13.8,-,N/A,,Overcast,290,2013-02-23 02:54:00
10:54 PM,32.0,27.0,82,29.99,9.0,West,11.5,-,0.00,Snow,Light Snow,280,2013-02-23 03:54:00
11:54 PM,30.9,26.1,82,30.00,10.0,WNW,13.8,-,0.00,,Overcast,290,2013-02-23 04:54:00